Weather Roundup
Issued by NWS Chicago, IL

Home | Current Version | Previous Version | Text Only | Print | Product List | Glossary On
Versions: 1 2 3 4 5 6 7 8 9 10 11 12 13 14 15 16 17 18 19 20 21 22 23 24 25 26 27 28 29 30 31 32 33 34 35 36 37 38 39 40 41 42 43 44 45 46 47 48 49 50
811
NZUS59 KLOT 281803
HRRLOT

CHICAGO AREA WEATHER ROUNDUP
NATIONAL WEATHER SERVICE CHICAGO/ROMEOVILLE IL
100 PM CDT FRI APR 28 2017

NOTE: "FAIR" INDICATES FEW OR NO CLOUDS BELOW 12,000 FEET WITH NO
SIGNIFICANT WEATHER AND/OR OBSTRUCTIONS TO VISIBILITY.

* THESE STATIONS ARE NOT UNDER NWS QUALITY CONTROL. THEY ALSO MAY NOT
  REPORT WEATHER SUCH AS PRECIPITATION OR FOG.

ILZ005-006-012>014-019>023-281900-
NORTHEAST ILLINOIS

CITY           SKY/WX    TMP DP  RH WIND       PRES   REMARKS
OHARE          CLOUDY    58  46  64 SE9       29.93S
6HR MIN TEMP:  41; 6HR MAX TEMP:  58;

MIDWAY         CLOUDY    58  47  66 SE9       29.93F
6HR MIN TEMP:  45; 6HR MAX TEMP:  59;

AURORA         CLOUDY    56  48  74 SE8       29.92F
6HR MIN TEMP:  41; 6HR MAX TEMP:  56;

LANSING*       CLOUDY    55  49  79 SE6       29.93F
WAUKEGAN       CLOUDY    48  38  68 SE7       29.94F
6HR MIN TEMP:  43; 6HR MAX TEMP:  53;

DUPAGE AIRPORT CLOUDY    56  48  74 SE7       29.92F
6HR MIN TEMP:  40; 6HR MAX TEMP:  57;

WHEELING       CLOUDY    54  44  69 E8        29.95S
6HR MIN TEMP:  44; 6HR MAX TEMP:  56;

MORRIS*        CLOUDY    55  48  78 CALM      29.91F
NORTHERLY ISL    N/A     48  42  80 E6          N/A
$$

WIZ051-052-058>065-066-070>072-281900-
SOUTHEAST WISCONSIN

CITY           SKY/WX    TMP DP  RH WIND       PRES   REMARKS
MILWAUKEE      CLOUDY    49  38  65 SE10      29.95R
6HR MIN TEMP:  39; 6HR MAX TEMP:  54;

KENOSHA*       CLOUDY    49  38  65 SE9       29.95S
RACINE*        CLOUDY    48  35  60 S9        29.97R
WAUKESHA       PTSUNNY   48  34  57 S3        29.95R
$$

INZ001>003-010>013-019-020-281900-
NORTHWEST INDIANA

CITY           SKY/WX    TMP DP  RH WIND       PRES   REMARKS
GARY*          CLOUDY    57  45  62 SE7       29.95F
MICHIGAN CITY* NOT AVBL
RENSSELAER*    NOT AVBL
VALPARAISO     CLOUDY    58  45  62 SE9       29.94F
$$

LMZ740>746-281900-
SOUTHERN LAKE MICHIGAN

STATION/POSITION TIME  SKY/WX   TEMP WIND        PRES    VSBY
                                AIR  DIR/SP/G
                 (UTC)          (F)  (DEG/KT/KT) (MB)    (MI)
HARRISON CRIB    1730            47  100/  8/  8   N/A
BURNHAM HARBOR   1800            47   90/  6/  7   N/A
CALUMET HARBOR   1730            47   60/  6/  7 1013.9R
BURNS HARBOR     1740            56  190/ 13/ 17 1014.6F
MICHIGAN CITY    1740            56  170/ 10/ 12   N/A
$$

ABBREVIATIONS USED IN REMARKS
   TC - TEMPERATURE IN CELSIUS
  WCI - WIND CHILL INDEX
   HX - HEAT INDEX
  VSB - VISIBILITY
$$




USA.gov is the U.S. government's official web portal to all federal, state and local government web resources and services.